This demonstration page uses our WeatherBlox Daily Observations layout. Learn more.

Left ArrowRight Arrow

34.02893, -84.19858

Hourly Observations for June 1, 2015

Temp ( °F °C ) Dew Point ( °F °C ) Humidity (%) Winds ( mph kmh ) Pressure ( in mb ) Visibility ( mi km ) Precip ( " mm )
12:53 am 00:53 Clear 67 19.4 66 18.9 97 97 Calm 30.03 1017 9 14 0.00 0.00
1:53 am 01:53 Cloudy 67 19.4 66 18.9 97 97 Calm 30.06 1018 8 13 0.00 0.00
2:18 am 02:18 Cloudy 68 20 66 19 94 94 Calm 30.06 1018 8 13 0.00 0.00
2:53 am 02:53 Cloudy 68 20 66 18.9 93 93 Calm 30.04 1017 8 13 0.00 0.00
3:50 am 03:50 Partly Cloudy 68 20 66 19 94 94 Calm 30.03 1017 8 13 0.00 0.00
3:53 am 03:53 Partly Cloudy 67 19.4 66 18.9 97 97 Calm 30.03 1017 8 13 0.00 0.00
4:53 am 04:53 Clear 67 19.4 66 18.9 97 97 E 3 6 30.01 1016 8 13 0.00 0.00
5:31 am 05:31 Partly Cloudy 66 18.9 66 18.9 100 100 SSE 3 6 30.03 1017 7 11 0.00 0.00
5:42 am 05:42 Mostly Cloudy with Mist and Fog 66 19 66 19 100 100 ESE 5 7 30.03 1017 6 10 0.00 0.00
5:53 am 05:53 Cloudy with Mist and Fog 67 19.4 66 18.9 97 97 SE 6 9 30.02 1017 5 8 0.00 0.00
6:53 am 06:53 Cloudy with Mist and Fog 67 19.4 66 18.9 97 97 S 5 7 30.05 1018 6 10 0.00 0.00
7:17 am 07:17 Cloudy with Mist and Fog 67 19.4 66 18.9 97 97 S 5 7 30.06 1018 6 10 0.00 0.00
7:53 am 07:53 Cloudy 68 20 67 19.4 96 96 SSE 3 6 30.06 1018 7 11 0.00 0.00
8:05 am 08:05 Cloudy 68 20 66 18.9 93 93 SSE 5 7 30.06 1018 7 11 0.00 0.00
8:44 am 08:44 Mostly Cloudy 70 21 66 19 88 88 SSW 5 7 30.06 1018 8 13 0.00 0.00
8:53 am 08:53 Mostly Cloudy 70 21.1 67 19.4 90 90 SSW 5 7 30.06 1018 8 13 0.00 0.00
9:53 am 09:53 Mostly Cloudy 74 23.3 66 18.9 76 76 SSE 7 11 30.06 1018 9 14 0.00 0.00
10:53 am 10:53 Mostly Cloudy 74 23.3 66 18.9 76 76 SSE 5 7 30.06 1018 8 13 0.00 0.00
11:29 am 11:29 Mostly Sunny 76 24.4 66 18.9 72 72 SSE 7 11 30.06 1018 8 13 0.00 0.00
11:53 am 11:53 Partly Cloudy 76 24.4 66 18.9 72 72 undefined N/A 30.06 1018 8 13 0.00 0.00
12:53 pm 12:53 Mostly Cloudy 78 25.6 67 19.4 69 69 S 6 9 30.06 1018 8 13 0.00 0.00
1:36 pm 13:36 Cloudy 79 26 66 19 65 65 VRB 7 11 30.03 1017 8 13 0.00 0.00
1:53 pm 13:53 Cloudy 78 25.6 66 18.9 67 67 S 8 13 30.04 1017 8 13 0.00 0.00
2:10 pm 14:10 Cloudy with Thunderstorms 77 25 66 19 69 69 S 5 7 30.06 1018 7 11 0.00 0.00
2:29 pm 14:29 Cloudy with Light Rain 75 23.9 68 20 79 79 WNW 8 13 30.03 1017 5 8 0.01 0.25
2:32 pm 14:32 Cloudy with Rain 73 23 68 20 83 83 NW 3 6 30.03 1017 2 3 0.00 0.00
2:40 pm 14:40 Cloudy with Light Rain 75 24 70 21 83 83 Calm 30.03 1017 7 11 0.00 0.00
2:53 pm 14:53 Mostly Cloudy with Nearby Thunderstorms 78 25.6 71 21.7 79 79 VRB 3 6 30.01 1016 7 11 0.06 1.52
3:14 pm 15:14 Mostly Cloudy with Haze 75 24 70 21 83 83 E 3 6 30.03 1017 6 10 0.00 0.00
3:38 pm 15:38 Cloudy 79 26 70 21 74 74 Calm 29.97 1015 7 11 0.00 0.00
3:53 pm 15:53 Mostly Cloudy 80 26.7 67 19.4 64 64 W 7 11 29.98 1015 8 13 0.00 0.00
4:53 pm 16:53 Mostly Sunny 79 26.1 64 17.8 60 60 WSW 9 15 29.98 1015 9 14 0.00 0.00
5:53 pm 17:53 Partly Cloudy 78 25.6 65 18.3 64 64 SW 10 17 29.99 1016 8 13 0.00 0.00
6:05 pm 18:05 Partly Cloudy 77 25 65 18.3 66 66 SW 8 13 29.97 1015 8 13 0.00 0.00
6:53 pm 18:53 Cloudy 77 25 67 19.4 71 71 SW 8 13 29.98 1015 8 13 0.00 0.00
7:53 pm 19:53 Partly Cloudy 73 23 64 18 74 74 Calm 30.00 1016 10 16 0.00 0.00
8:53 pm 20:53 Mostly Cloudy 72 22.2 62 16.7 71 71 WNW 5 7 30.00 1016 10 16 0.00 0.00
9:53 pm 21:53 Mostly Cloudy 72 22.2 62 16.7 71 71 NW 6 9 30.00 1016 10 16 0.00 0.00
10:53 pm 22:53 Cloudy 71 21.7 63 17.2 76 76 SSW 3 6 30.01 1016 10 16 0.00 0.00
11:53 pm 23:53 Clear 69 20.6 64 17.8 84 84 undefined N/A 30.01 1016 10 16 0.00 0.00

Powered by AerisWeather